Weather Service Report


889 
ASUS44 KSJT 281610
RWRSJT
WEST CENTRAL TEXAS REGIONAL WEATHER ROUNDUP
NATIONAL WEATHER SERVICE SAN ANGELO TX
1000 AM CST SAT FEB 28 2015

NOTE: "FAIR" INDICATES FEW OR NO CLOUDS BELOW 12,000 FEET WITH NO
SIGNIFICANT WEATHER AND/OR OBSTRUCTIONS TO VISIBILITY.

TXZ049-054-064>066-071>073-076>078-098-099-113-114-127-128-139-140-
154-155-168>170-281700
...LOCATIONS ACROSS WEST CENTRAL TEXAS...
  
CITY           SKY/WX    TMP DP  RH WIND       PRES   REMARKS
SAN ANGELO     CLOUDY    27  25  92 E8        30.29R WCI  19          
ABILENE        CLOUDY    23  21  92 N5        30.32R FOG     WCI  17  
DYESS AFB      CLOUDY    22  20  92 NE3       30.30F FOG              
JUNCTION       CLOUDY    29  28  96 NE9       30.28R FOG     WCI  20  
SWEETWATER     CLOUDY    20  20  97 CALM      30.30S                  
BROWNWOOD      MIX PCPN  28  27  93 NE8       30.34R WCI  20          
COLEMAN        CLOUDY    26  26 100 NE7       30.32R FOG     WCI  18  
SONORA         CLOUDY    28  27  93 CALM      30.31R                  
OZONA          CLOUDY    30  28  93 E6        30.26S FOG     WCI  24  
BRADY          NOT AVBL                                               
$$

TEXAS PANHANDLE/OKLAHOMA PANHANDLE
  
CITY           SKY/WX    TMP DP  RH WIND       PRES   REMARKS
AMARILLO       CLOUDY    14  12  92 S9        30.18S FOG     WCI   2  
BORGER         FLURRIES  16  11  80 S15G22    30.19F WCI   1          
CANADIAN       LGT SNOW  19  15  84 S10       30.26F VSB 1   WCI   8  
DALHART        CLOUDY    17  12  80 S16       30.09F WCI   2          
DUMAS          LGT SNOW  17  12  82 S16       30.12F WCI   1          
GUYMON         NOT AVBL                                               
HEREFORD       CLOUDY    16  15  93 S9        30.16S FOG     WCI   5  
PAMPA          PTSUNNY   16  12  86 S13       30.19S WCI   2          
PERRYTON         N/A     17  13  84 S13       30.21F WCI   3          
$$

SOUTHERN PANHANDLE/SOUTH PLAINS/ROLLING PLAINS
  
CITY           SKY/WX    TMP DP  RH WIND       PRES   REMARKS
LUBBOCK        LGT SNOW  17  15  92 VRB5      30.21R FOG     WCI  10  
SNYDER         CLOUDY   N/A N/A N/A E6        30.27S FOG              
CHILDRESS      CLOUDY    19  17  92 SE5       30.33S FOG     WCI  12  
SEMINOLE       CLOUDY   N/A N/A N/A SE6       30.20R FOG              
$$

PERMIAN BASIN
  
CITY           SKY/WX    TMP DP  RH WIND       PRES   REMARKS
MIDLAND        CLOUDY    24  21  88 SE10      30.21R FOG     WCI  14  
ODESSA         CLOUDY    23  20  88 E8        30.21R FOG     WCI  14  
WINK           CLOUDY    25  21  85 SE8       30.20R WCI  16          
$$

FAR WEST/SOUTHWEST MOUNTAINS/TRANS PECOS
  
CITY           SKY/WX    TMP DP  RH WIND       PRES   REMARKS
ALPINE         CLOUDY    32  32 100 CALM      30.15S                  
DRYDEN           N/A     34  33  96 E8        30.21R WCI  27          
EL PASO        MOSUNNY   35  25  66 VRB3      30.03R                  
FORT STOCKTON  CLOUDY    27  27 100 E9        30.18R FOG     WCI  18  
GUADALUPE PASS NOT AVBL                                               
MARFA          CLOUDY    32  30  93 SE7       30.11R WCI  26          
PECOS          CLOUDY    25  24  94 E5        30.23R FOG     WCI  19  
$$

DALLAS/FORT WORTH METROPLEX
  
CITY           SKY/WX    TMP DP  RH WIND       PRES   REMARKS
DFW AIRPORT    CLOUDY    28  25  88 NE10      30.39S FOG     WCI  19  
FTW MEACHAM    CLOUDY    29  26  89 NE8       30.38F FOG     WCI  21  
DAL-EXECUTIVE  FRZ RAIN  29  26  89 NE7       30.38S FOG     WCI  22  
GRAND PRAIRIE  CLOUDY    28  28 100 NE7       30.41S FOG     WCI  21  
ADDISON        NOT AVBL                                               
MESQUITE       CLOUDY    30  27  86 N3        30.42R                  
LANCASTER      DRIZZLE   30  26  84 NE6       30.41R WCI  24          
$$

NORTH CENTRAL TEXAS
  
CITY           SKY/WX    TMP DP  RH WIND       PRES   REMARKS
SHRMAN/DENISON CLOUDY    28  28  99 NE7       30.44R WCI  21          
GAINESVILLE    CLOUDY    26  24  91 E8        30.43S WCI  18          
BRIDGEPORT     MIX PCPN  27  27 100 NE6       30.40F WCI  20          
DENTON         FRZ RAIN  27  25  92 NE8       30.41S VSB 1   WCI  19  
WAXAHACHIE     CLOUDY    29  29 100 NE8       30.40S FOG     WCI  21  
GRANBURY       DRIZZLE   30  28  90 NE3       30.41R                  
$$

WESTERN NORTH TEXAS
  
CITY           SKY/WX    TMP DP  RH WIND       PRES   REMARKS
WICHITA FALLS  FRZ RAIN  24  21  88 E7        30.38F FOG     WCI  16  
VERNON         CLOUDY    23  18  83 E5        30.39S WCI  17          
BRECKENRIDGE   CLOUDY    27  26  98 E6        30.36S FOG     WCI  20  
COMANCHE       CLOUDY    28  28 100 E5        30.35R FOG     WCI  22  
$$

CENTRAL AND SOUTH CENTRAL TEXAS
  
CITY           SKY/WX    TMP DP  RH WIND       PRES   REMARKS
AUSTIN/BERGSTM CLOUDY    33  31  92 N13       30.33R WCI  24          
WACO           FRZ RAIN  30  28  92 N10       30.37S FOG     WCI  21  
HILLSBORO      CLOUDY    31  28  86 NE6       30.38R WCI  25          
TEMPLE         CLOUDY    30  27  86 CALM      30.34S                  
KILLEEN-GRAY   FRZ DRZL  28  28 100 N8        30.33S FOG     WCI  20  
FORT HOOD      FRZ DRZL  30  28  93 N8        30.33S VSB 1/2 WCI  23  
GEORGETOWN     FRZ DRZL  30  28  93 N8        30.34S FOG     WCI  23  
LAGO VISTA     CLOUDY    31  30  96 NE9       30.30S FOG     WCI  23  
SAN MARCOS     DRIZZLE   34  30  86 N12       30.32R FOG     WCI  25  
NEW BRAUNFELS  CLOUDY    35  32  88 NE12      30.28R WCI  27          
RANDOLPH AFB   CLOUDY    35  32  89 NE13G21   30.27R WCI  26          
SAN ANTONIO    LGT RAIN  36  33  89 NE12      30.27S WCI  28          
STINSON        CLOUDY    36  33  89 NE9       30.26R WCI  29          
PLEASANTON     NOT AVBL                                               
LA GRANGE      CLOUDY    43  35  72 E6        30.30S WCI  39          
GIDDINGS       CLOUDY    39  31  72 NE5       30.36R WCI  36          
$$

EAST TEXAS
  
CITY           SKY/WX    TMP DP  RH WIND       PRES   REMARKS
PARIS          CLOUDY    27  21  80 E12       30.44F WCI  16          
CLARKSVILLE    NOT AVBL                                               
TYLER          CLOUDY    34  23  64 E8        30.39R WCI  27          
LONGVIEW       CLOUDY    34  23  64 E13       30.40F WCI  25          
PALESTINE      CLOUDY    37  28  69 E7        30.36F WCI  32          
NACOGDOCHES    CLOUDY    37  27  65 E7        30.38F WCI  32          
$$

TEXAS HILL COUNTRY AND EDWARDS PLATEAU
  
CITY           SKY/WX    TMP DP  RH WIND       PRES   REMARKS
LLANO          CLOUDY    32  30  93 CALM      30.36S FOG              
HORSESHOE BAY  CLOUDY    30  30 100 N3        30.33R FOG              
KERRVILLE      MIX PCPN  31  30  96 CALM      30.27R                  
FREDERICKSBRG  MIX PCPN  29  28  96 CALM      30.27R                  
ROCKSPRINGS    NOT AVBL                                               
HONDO          LGT RAIN  38  32  79 E10       30.29R WCI  31          
UVALDE         CLOUDY    36  35  97 CALM      30.29R FOG              
DEL RIO        CLOUDY    38  35  89 E7        30.28R WCI  33          
$$

SOUTHEAST TEXAS
  
CITY           SKY/WX    TMP DP  RH WIND       PRES   REMARKS
COLLEGE STN    CLOUDY    40  30  67 NE7       30.33S WCI  35          
CALDWELL       CLOUDY    37  32  81 NE7       30.37R WCI  32          
CROCKETT       CLOUDY    43  32  65 E3        30.38F                  
BRENHAM        CLOUDY    43  34  70 E6        30.33S WCI  39          
HUNTSVILLE     CLOUDY    41  30  65 E7        30.33S WCI  36          
CONROE         LGT RAIN  39  32  76 E5        30.35R WCI  36          
HOUSTON BUSH   CLOUDY    43  33  68 E10       30.33S WCI  37          
HOUSTON HOBBY  CLOUDY    45  35  68 E16       30.31F WCI  38          
PERLAND        CLOUDY    48  38  68 E17G26    30.33S                  
WHARTON        CLOUDY    46  40  78 E14       30.29S                  
$$

THE UPPER TEXAS COAST
  
CITY           SKY/WX    TMP DP  RH WIND       PRES   REMARKS
ORANGE         CLOUDY    49  33  54 NE13      30.36S                  
PORT ARTHUR    CLOUDY    49  33  54 NE14      30.34S                  
GALVESTON      CLOUDY    51  46  83 NE14      30.32S                  
ANGLETON       CLOUDY    51  45  79 E15G22    30.29R                  
BAY CITY       CLOUDY    55  49  80 E14       30.27R                  
$$

TEXAS COASTAL BEND, RIO GRANDE PLAINS DEEP SOUTH TEXAS
  
CITY           SKY/WX    TMP DP  RH WIND       PRES   REMARKS
VICTORIA       LGT RAIN  46  45  96 NE8       30.27R FOG              
BEEVILLE       LGT RAIN  45  45 100 NE14G21   30.22R WCI  38          
ROCKPORT       CLOUDY    52  50  93 N8        30.21R FOG              
PORT ARANSAS   CLOUDY    60  58  95 E9        30.18R FOG              
PORT LAVACA    CLOUDY    51  46  84 NE18      30.24R                  
CORPUS CHRISTI LGT RAIN  52  50  93 NE16      30.19R FOG              
KINGSVILLE NAS LGT RAIN  49  49 100 NW12      30.21R FOG              
COTULLA        CLOUDY    38  36  92 NE7       30.29R FOG     WCI  33  
LAREDO         CLOUDY    39  37  92 NW9       30.30R WCI  33          
BROWNSVILLE    CLOUDY    50  47  89 W10       30.21R FOG              
PORT ISABEL    CLOUDY    50  48  93 W12       30.20R FOG              
HEBBRONVILLE   HVY RAIN N/A N/A N/A NW12      30.25R VSB 1            
MCALLEN        CLOUDY    43  41  93 NW13      30.25R FOG     WCI  36  
WESLACO        FOG       44  43  95 W9        30.23R VSB 1   WCI  39  
FALFURRIAS     CLOUDY    45  43  93 NW10      30.22R WCI  40          
EDINBURG       CLOUDY    48  46  93 NW7       30.23R FOG              
$$

Return to Home page


Western Regional Climate Center, wrcc@dri.edu